Wind_Speed
21 26 32 37 40 42 43 41 42 43 38 31 25 24 28 33 40 44 41 39 36 33 39 42 46 50 47 44 41 37 38 40 43 42 41 41 41 42 42 42 42 41 39 35 34 37 39 41 40 38 38 38 39 40 40 41 40 40 40 41 41 40 40 41 40 40 40 40 39 38 36 34 33 32 31 31 31 31 31 31 31 31 30 31 32 31
21 28 35 38 38 38 38 38 39 41 43 43 38 35 34 34 39 40 34 33 32 35 45 45 47 53 51 48 44 40 40 42 44 41 39 40 40 42 43 42 41 37 33 33 37 39 40 41 40 39 40 40 39 39 39 40 40 39 40 41 39 39 40 40 40 40 41 40 38 38 36 34 33 33 32 33 33 33 32 32 32 31 32 32 33 32
23 31 35 34 35 35 34 34 36 39 40 42 44 45 46 46 45 40 34 31 27 31 40 41 43 51 51 47 45 43 44 45 45 44 42 40 41 42 44 43 42 38 33 33 36 39 41 41 41 41 41 41 39 38 39 39 40 40 41 40 39 39 40 39 40 41 41 40 38 38 36 35 35 35 36 36 36 35 34 34 32 32 33 33 33 33
27 31 29 28 29 30 31 32 33 37 39 40 42 44 49 52 44 38 35 28 23 28 35 37 40 49 48 43 45 44 44 46 44 45 46 44 44 44 45 44 43 42 39 35 36 38 41 42 42 43 42 41 40 39 40 41 41 41 40 40 39 39 40 40 40 40 40 41 40 39 38 38 39 39 39 39 37 36 35 34 33 33 33 32 32 32
35 34 29 28 27 26 27 28 30 35 39 41 43 45 49 50 43 40 36 27 25 28 33 34 35 48 52 45 48 48 43 47 46 45 47 46 46 45 45 45 44 44 42 38 38 38 40 42 43 43 42 41 41 40 41 41 41 41 40 39 40 40 41 40 40 40 41 42 42 42 41 42 43 42 41 39 37 36 34 33 32 32 32 31 31 30
37 37 33 33 32 30 30 30 29 31 37 41 42 44 46 47 43 42 38 31 30 31 37 33 21 36 53 46 46 49 45 48 47 45 47 46 45 45 45 47 45 43 42 40 40 40 40 42 42 44 43 43 43 41 40 40 40 41 41 41 42 42 42 42 42 42 42 43 43 43 43 43 43 42 40 37 35 34 34 33 33 33 32 31 30 30
38 36 33 33 32 30 31 33 32 29 33 39 40 38 39 41 40 39 39 32 27 28 38 36 18 25 50 50 49 52 48 50 50 47 49 47 46 46 45 46 44 43 43 41 40 42 41 42 42 44 44 44 43 41 39 40 41 42 43 43 43 44 44 43 43 43 44 44 44 44 44 43 43 41 39 37 36 35 34 34 34 34 33 32 31 31
35 34 32 32 30 29 30 33 34 32 34 39 38 33 32 33 32 32 35 34 32 35 35 33 23 21 41 54 54 51 47 48 52 50 50 49 47 47 46 45 44 42 42 41 40 42 42 42 43 43 44 44 42 41 40 41 42 43 43 43 44 45 45 45 44 45 45 45 45 45 45 44 43 42 40 39 38 37 36 35 35 35 34 34 33 33
33 32 32 29 28 28 31 34 33 33 38 40 36 33 31 29 29 28 29 31 34 34 27 26 24 15 32 54 49 41 41 47 53 50 47 47 44 45 45 42 41 40 39 40 40 42 42 42 42 42 42 42 42 42 42 43 43 43 44 44 45 46 46 46 46 46 46 46 46 46 46 45 44 43 41 41 40 38 37 36 36 36 35 35 35 35
34 34 31 27 29 31 33 32 30 31 35 36 34 34 32 29 30 30 29 32 32 25 20 26 27 14 27 51 40 31 40 48 53 50 44 44 41 42 43 40 39 38 37 38 40 42 42 41 41 40 41 42 43 43 43 44 44 45 45 45 46 46 46 47 47 47 47 47 47 47 47 47 45 44 43 42 41 39 38 37 37 37 37 36 36 36
35 34 32 31 32 31 33 32 29 29 28 28 32 34 32 30 33 32 31 33 24 16 21 33 38 24 20 41 37 33 49 52 49 50 46 43 40 39 39 37 36 35 34 36 37 39 41 41 40 40 41 42 43 44 44 45 46 46 46 46 46 47 47 48 48 48 48 48 48 48 47 47 45 44 44 43 42 40 39 38 38 38 37 37 37 36
32 29 29 33 33 30 30 30 28 27 25 25 30 33 27 22 25 25 24 25 13 8 24 39 45 33 21 36 33 23 36 42 40 44 43 39 39 39 38 36 34 32 32 34 34 37 39 40 41 41 42 43 43 45 45 46 47 47 48 48 48 48 49 49 49 48 49 49 49 48 47 47 46 45 45 44 43 41 40 39 38 38 38 38 38 37
31 29 27 27 29 29 29 31 30 28 27 28 31 31 20 8 11 12 8 12 8 12 31 39 36 29 31 50 48 29 30 32 29 32 30 28 28 27 28 30 32 31 31 32 34 35 36 38 40 41 42 43 44 45 46 46 48 48 49 49 49 50 49 49 49 49 49 49 49 49 48 48 47 46 46 45 44 42 41 40 39 39 39 39 38 36
26 28 30 27 26 26 28 32 32 29 27 30 34 32 18 4 3 6 6 6 7 16 36 40 28 17 25 51 60 50 46 41 39 41 36 34 32 26 21 20 22 25 26 28 30 32 35 37 38 40 41 43 44 45 46 47 48 48 49 50 49 49 49 49 49 49 49 49 48 49 49 49 49 48 47 46 44 43 42 41 40 40 40 39 38 36
17 17 21 22 19 20 26 31 33 33 31 32 35 35 29 19 9 4 4 5 5 12 27 30 18 7 16 45 56 45 39 34 32 32 28 30 34 33 32 29 26 24 22 22 23 25 29 33 37 39 41 43 44 45 47 47 48 48 48 48 48 48 49 49 50 50 50 50 49 49 49 49 49 48 47 46 44 43 43 42 41 41 40 39 38 37
14 13 16 19 18 18 22 26 29 32 34 33 34 35 36 33 25 16 11 11 7 8 13 15 12 10 20 50 59 45 43 38 30 31 29 27 27 25 28 31 32 32 31 31 29 26 27 30 35 38 41 43 44 45 47 47 47 47 46 46 47 47 48 49 50 50 51 51 50 49 49 48 48 47 46 45 44 44 44 43 42 41 40 39 38 39
10 13 15 17 20 20 20 24 27 27 27 28 32 39 40 37 35 26 18 19 14 7 9 11 11 14 22 46 57 50 53 50 44 49 50 45 39 29 24 22 18 19 22 27 30 29 27 28 29 31 35 40 43 44 45 45 45 45 44 45 45 46 47 49 50 50 51 52 51 50 49 48 48 46 45 45 45 44 44 44 43 41 40 40 40 40
13 19 21 20 20 20 18 20 28 31 29 27 28 34 37 35 37 29 13 11 11 6 8 13 14 15 18 31 40 30 28 28 27 33 37 39 42 39 38 35 26 22 21 19 21 25 28 28 27 28 29 31 34 38 41 44 45 45 45 45 45 46 47 47 48 49 49 51 51 51 50 49 48 46 45 45 45 44 44 44 43 42 41 41 40 39
13 18 23 27 26 24 22 19 23 30 31 31 31 30 26 20 23 27 15 6 8 6 7 14 19 19 23 34 38 25 18 16 12 13 16 20 24 26 31 34 32 32 34 30 24 23 27 30 31 31 31 31 31 31 35 41 44 45 46 47 47 47 47 48 47 47 47 48 49 49 49 49 48 47 46 45 45 45 45 44 42 42 41 40 40 39
16 12 15 24 28 30 30 21 16 20 24 27 30 33 30 20 15 21 20 13 8 6 7 12 13 15 27 42 48 42 38 34 28 28 27 26 26 26 27 29 26 25 28 32 32 28 27 29 29 27 27 32 34 31 31 36 40 41 43 44 47 48 48 48 48 47 47 46 46 47 47 47 47 47 47 47 46 46 45 44 42 41 40 40 39 39
18 13 14 23 28 30 31 22 13 15 19 20 21 23 26 23 17 17 20 22 16 7 7 9 7 12 25 38 44 43 41 37 36 38 39 38 38 38 36 35 33 30 26 26 29 32 32 30 29 27 24 27 34 34 32 34 36 37 37 38 41 45 47 48 48 47 47 46 46 46 45 45 45 45 47 48 47 46 45 43 42 41 41 40 39 39
17 14 17 24 28 31 35 32 26 25 26 26 23 22 23 21 16 11 10 18 20 12 8 9 8 10 15 19 25 27 24 20 18 21 25 27 27 29 31 30 32 34 33 28 26 28 30 28 25 26 24 25 30 32 31 32 33 34 34 34 35 38 43 46 46 46 45 44 44 44 44 43 43 44 46 47 47 45 44 43 42 41 41 40 39 39
21 18 21 26 29 33 35 35 35 32 32 32 27 23 23 20 14 7 3 8 15 16 15 14 11 12 16 17 16 15 12 9 7 7 8 9 11 14 17 20 24 30 33 34 31 29 28 27 25 25 27 29 30 30 27 27 29 31 33 33 33 34 37 39 41 42 41 41 42 43 42 42 42 44 45 46 45 44 44 43 42 41 41 39 39 38
21 19 21 23 25 30 32 33 34 33 31 29 24 21 19 16 11 7 6 11 14 15 14 9 6 13 23 28 25 20 17 14 10 10 9 8 9 9 9 11 14 20 26 31 34 34 33 33 31 28 28 29 31 31 29 26 27 30 32 34 34 34 34 34 36 37 38 40 42 43 43 43 43 44 44 44 44 44 43 42 41 41 39 39 39 38
15 15 14 11 11 15 20 21 21 21 19 15 12 12 11 9 8 9 14 13 8 11 10 2 4 13 23 31 32 28 24 19 12 11 12 11 11 11 9 8 8 11 17 22 28 33 33 33 32 31 30 30 29 30 31 30 29 30 32 33 34 35 34 34 35 37 38 40 42 44 45 45 44 43 43 43 43 42 42 41 41 40 39 39 38 38
19 18 16 11 6 6 10 13 12 12 15 13 13 13 14 15 16 17 18 12 5 12 16 6 10 21 22 31 34 29 25 23 16 8 8 12 14 13 10 5 4 6 8 10 16 24 28 29 29 29 30 28 27 28 31 32 32 31 32 33 33 33 33 34 35 35 37 40 42 44 45 45 45 44 43 43 42 41 41 41 40 39 39 38 38 37
25 27 29 27 24 23 26 30 28 22 22 26 26 26 26 26 22 16 14 13 12 18 25 19 20 29 27 28 27 24 22 22 19 10 7 11 14 15 13 7 1 1 1 1 2 8 17 23 25 26 27 27 27 28 29 30 32 32 32 32 31 31 31 32 33 33 35 39 43 44 45 46 45 44 43 42 41 41 41 40 39 39 38 38 37 37
29 32 34 35 36 37 38 38 34 29 30 32 32 33 33 27 20 17 17 19 17 15 21 26 23 27 34 31 22 20 21 19 19 14 8 9 11 12 11 9 6 3 2 4 6 3 4 9 14 19 23 25 28 29 29 28 29 30 30 30 30 30 29 29 30 31 34 39 42 43 43 44 43 42 41 41 41 41 40 40 39 38 38 37 37 36
31 34 36 35 37 38 38 37 35 31 31 32 32 34 34 26 21 21 21 21 19 14 18 29 27 27 40 40 28 25 29 29 26 21 16 15 14 10 7 8 8 6 4 4 3 1 2 3 3 6 10 15 20 24 27 28 28 28 28 29 29 29 29 28 29 31 34 38 40 40 40 41 41 41 41 41 41 40 39 39 38 37 37 37 36 35
31 35 36 34 36 38 38 37 34 32 31 32 32 32 32 29 26 25 23 22 23 21 23 32 35 37 45 44 37 36 37 37 35 29 23 23 23 19 14 9 8 8 6 4 2 4 8 8 6 5 4 5 9 14 21 25 27 27 27 28 29 29 29 30 31 32 35 37 39 39 39 39 40 40 40 40 39 39 39 38 38 37 37 36 36 35
34 36 35 33 33 37 41 38 33 30 28 30 32 31 31 32 29 29 29 27 27 27 29 33 37 44 48 45 42 45 43 41 40 33 29 29 29 27 24 20 17 14 13 12 9 10 13 13 11 8 6 6 6 7 12 18 23 26 28 28 30 30 30 32 33 34 35 37 38 38 38 38 38 38 38 38 38 38 38 38 37 37 36 36 35 35
38 37 35 30 26 32 39 32 25 25 23 27 34 33 33 36 35 34 33 31 30 29 29 30 33 43 51 49 47 49 46 44 43 37 34 35 33 31 29 27 24 22 20 20 18 17 16 16 15 10 5 6 8 7 7 11 16 22 27 29 30 31 32 33 34 35 36 37 37 37 37 36 36 37 37 38 38 38 38 37 37 37 36 35 35 35
40 38 36 28 21 29 33 21 14 15 12 19 29 28 30 37 38 38 38 35 34 33 32 34 35 41 49 50 48 50 48 46 45 41 39 39 37 35 33 30 28 25 23 22 22 21 19 18 16 12 6 6 9 10 9 10 12 16 22 27 30 32 33 34 35 36 36 36 36 36 35 35 36 36 37 37 37 37 37 37 37 36 35 34 34 34
38 39 37 30 23 23 21 10 7 8 7 18 27 23 25 31 32 35 38 35 33 34 35 36 36 38 45 49 48 49 51 48 46 44 42 41 38 35 34 34 30 27 24 22 21 20 20 18 16 14 13 12 13 13 12 12 13 15 18 23 27 30 33 35 36 36 36 36 35 35 35 36 36 36 36 36 37 37 38 37 36 35 34 34 34 34
37 38 35 33 29 21 12 8 6 6 17 31 32 25 26 29 29 31 34 34 33 32 33 35 35 35 40 43 41 43 48 47 45 45 44 40 35 32 34 36 33 30 27 24 21 19 18 18 16 15 16 17 18 17 16 15 15 15 17 20 23 27 30 33 35 37 37 37 37 36 36 36 36 36 36 37 37 38 38 37 36 35 34 34 34 33
38 37 34 33 31 21 11 10 8 13 26 35 33 29 30 30 28 29 31 33 32 28 29 32 33 33 35 37 37 38 42 42 40 41 42 37 33 32 35 36 35 34 31 27 24 21 18 18 18 17 16 17 18 19 20 19 18 17 18 19 20 24 27 30 33 36 37 37 38 37 36 35 36 36 37 37 38 38 38 36 34 34 34 34 33 33
41 39 36 32 28 24 17 14 15 17 25 35 37 33 31 30 30 29 30 32 30 26 26 30 32 34 35 36 37 36 37 38 38 40 39 35 32 33 34 34 33 33 33 31 28 24 20 17 18 19 18 18 19 21 22 22 21 20 20 20 21 22 24 27 30 33 36 37 37 37 36 35 36 37 37 37 38 38 37 35 34 34 35 34 33 33
45 42 40 32 27 28 22 12 9 8 17 34 39 32 30 33 30 26 26 30 31 29 28 29 30 33 33 32 32 32 33 37 40 38 32 28 28 29 29 28 27 27 29 31 30 28 24 19 17 19 20 21 21 22 22 23 22 22 22 22 22 22 23 25 27 30 33 35 35 36 36 36 36 36 36 37 37 36 35 35 35 35 35 34 33 32
44 41 41 34 27 27 22 10 6 11 23 41 41 30 31 35 27 17 16 26 34 33 31 30 27 25 27 28 29 30 33 38 41 36 29 26 26 25 23 23 24 25 28 30 30 30 29 24 20 19 21 23 24 23 23 24 24 24 25 24 23 23 24 24 25 27 30 33 34 34 35 36 36 36 36 36 35 35 35 35 36 36 35 34 34 33
44 41 39 37 34 35 29 17 14 22 36 46 40 32 34 33 19 5 7 21 32 29 26 25 21 19 23 27 29 30 30 32 33 32 30 30 30 28 27 26 26 28 29 29 30 30 30 30 28 24 23 24 25 25 24 24 24 25 26 26 24 24 25 25 25 25 28 32 34 35 35 36 37 36 35 35 36 36 37 37 37 37 36 36 35 34
47 46 42 42 42 40 34 23 20 32 46 48 41 39 39 27 9 7 16 30 35 30 26 24 22 24 26 27 29 31 30 28 27 27 28 29 30 29 28 26 25 26 27 28 29 29 30 32 33 31 28 26 26 28 27 25 24 25 27 28 27 26 26 26 26 26 27 29 33 36 37 36 37 37 37 37 39 39 38 38 38 37 36 36 35 35
41 41 41 43 43 41 39 30 21 33 50 50 42 42 39 26 18 22 31 34 32 31 33 32 31 30 28 27 31 34 33 32 30 28 28 28 28 28 27 27 27 27 28 28 28 29 29 31 32 33 32 29 28 29 29 28 26 26 28 30 30 28 27 27 28 28 28 27 29 35 39 39 37 38 40 42 43 41 40 39 38 37 37 36 36 35
45 39 35 40 41 34 29 21 15 27 43 44 40 41 39 32 27 27 29 27 25 26 28 28 30 30 28 28 31 33 35 35 32 31 31 29 28 28 28 29 30 30 30 30 29 29 29 31 32 32 32 32 30 29 30 31 30 29 29 31 32 31 30 29 29 29 29 29 28 30 36 41 41 40 42 46 46 43 42 40 39 38 38 37 37 36
44 38 32 40 44 34 26 26 31 40 41 34 33 36 35 30 26 24 24 25 24 22 21 23 26 29 30 31 33 35 37 36 32 31 31 30 29 28 27 27 28 30 31 30 30 31 31 32 34 33 30 31 32 30 29 30 31 31 32 33 34 34 33 33 32 31 30 30 29 28 31 38 43 43 44 48 49 46 44 43 41 40 39 38 38 38
40 43 42 46 50 45 43 46 48 45 37 30 29 31 30 29 27 24 26 28 25 22 23 25 27 29 32 33 33 35 36 33 29 27 27 27 27 26 25 24 24 27 30 30 30 31 31 32 35 36 34 31 31 32 30 28 29 30 33 35 35 36 36 36 36 35 33 30 30 30 29 33 39 43 45 48 51 49 46 44 44 43 41 41 40 40
46 49 47 44 44 44 47 50 46 39 34 33 31 28 28 29 26 24 27 30 28 25 25 26 28 30 31 31 31 32 32 30 27 26 26 26 26 25 25 24 23 24 27 29 30 31 32 32 34 37 37 34 32 32 31 29 28 28 30 34 36 37 37 37 37 38 37 34 32 31 31 32 35 40 45 48 51 51 49 47 45 44 43 43 43 42
46 45 42 40 39 37 38 43 42 37 34 33 31 30 30 30 27 28 30 31 29 26 25 25 25 26 27 27 28 28 27 27 26 26 26 26 25 25 25 24 23 23 24 25 27 29 31 32 34 36 38 36 34 34 33 32 31 29 29 32 36 38 38 39 38 38 39 39 37 34 33 33 34 37 42 46 50 52 52 50 48 47 46 46 45 44
44 43 39 37 37 37 38 40 38 33 32 32 32 33 33 31 30 29 28 28 29 28 27 26 27 29 31 32 31 29 27 26 26 26 25 24 24 23 23 22 22 22 23 23 24 25 27 30 32 35 38 38 36 36 35 34 34 32 31 31 34 37 39 40 40 39 38 39 40 39 36 35 35 36 39 42 47 51 53 52 51 50 49 48 47 45
42 40 38 38 38 39 41 40 36 34 34 33 33 33 33 32 32 32 30 30 31 31 32 33 33 33 33 32 30 29 27 26 26 26 24 24 23 22 22 22 22 22 23 23 22 23 24 26 28 32 35 37 38 37 37 37 36 35 33 31 31 35 39 41 42 42 39 37 37 39 39 38 36 36 38 40 44 47 51 53 52 51 50 49 47 45
41 40 39 39 39 39 39 36 33 33 33 32 31 30 29 29 30 30 29 28 29 30 32 34 34 32 29 28 28 27 26 25 25 23 22 21 21 21 21 22 22 22 21 21 21 22 22 22 24 26 29 33 36 37 37 38 39 38 35 32 30 32 36 39 42 45 44 42 39 39 40 41 39 37 37 39 41 44 47 51 53 53 52 51 50 48
41 42 41 38 37 36 34 30 28 29 29 28 27 25 25 25 24 23 22 22 24 25 26 28 29 28 27 27 27 27 27 26 23 21 19 18 19 20 20 20 21 21 20 20 20 21 21 21 21 22 24 27 31 34 36 38 40 40 38 34 31 30 31 34 38 41 43 44 43 41 42 43 44 43 40 38 39 43 45 48 51 54 55 54 53 52
Wind_Direction
244 240 237 237 239 239 236 235 238 240 241 244 248 250 253 253 255 256 256 256 254 253 255 255 258 262 264 263 262 258 257 256 256 255 253 250 248 246 245 246 248 249 246 239 233 231 232 235 236 234 232 230 226 224 223 224 223 222 222 222 221 220 221 222 223 224 223 224 226 227 228 229 230 230 230 231 232 233 235 237 240 241 242 244 246 248
243 241 241 242 246 247 245 244 245 246 245 245 246 249 252 252 255 259 258 258 257 255 258 258 259 262 262 262 262 260 255 250 248 251 251 249 247 245 245 245 245 245 240 233 230 229 230 233 234 233 232 230 226 223 222 223 223 223 223 222 222 221 222 223 224 226 227 227 228 230 231 232 233 233 232 232 233 233 234 235 237 239 241 244 246 248
248 246 246 247 249 250 251 251 250 250 249 248 247 249 252 252 255 260 259 259 256 255 261 263 262 264 264 264 263 260 255 249 248 251 249 247 245 243 242 242 242 241 235 229 228 227 228 230 232 233 232 230 227 224 222 223 223 223 223 222 222 222 223 223 224 226 228 230 231 232 231 232 233 233 232 232 233 233 233 234 235 237 240 243 245 248
255 250 251 256 256 255 255 253 253 253 251 250 248 247 250 252 254 259 261 261 259 255 261 265 266 267 266 264 260 257 255 252 250 251 248 245 243 241 241 242 241 241 236 229 225 225 226 227 230 232 233 231 228 224 222 221 222 223 223 223 223 224 224 223 224 226 228 230 231 231 231 232 232 232 232 232 232 233 234 234 236 238 241 244 246 249
258 250 254 263 261 260 258 256 255 254 252 251 249 248 251 254 254 257 260 261 261 256 256 264 272 269 264 262 260 258 257 257 253 250 249 247 244 241 241 241 240 241 239 232 226 223 223 225 227 231 233 233 231 227 224 221 222 224 224 224 224 225 226 225 226 226 228 229 230 230 230 231 232 232 232 232 234 236 237 238 239 242 245 247 249 252
258 249 255 262 259 258 258 257 255 253 253 253 252 252 254 258 256 257 261 261 262 259 256 260 273 272 267 265 264 262 259 257 255 253 251 248 246 244 242 242 240 241 240 236 230 225 225 226 227 230 232 233 232 229 227 224 223 224 224 224 225 226 226 226 227 227 228 229 230 230 231 232 234 235 236 237 238 239 239 240 242 245 248 249 250 251
258 251 255 259 258 257 256 255 252 251 253 252 253 257 258 260 257 257 260 256 253 258 261 259 256 273 276 271 265 265 262 258 256 255 251 246 247 247 243 242 242 241 240 238 234 229 228 228 227 229 231 233 233 231 229 227 224 223 223 223 224 226 226 227 228 228 229 229 229 230 231 233 236 237 238 238 238 239 239 239 241 243 246 248 248 247
259 256 258 260 257 253 249 249 250 248 247 249 254 260 261 259 257 258 258 252 250 257 262 258 249 264 274 270 266 265 264 262 258 252 248 245 246 248 246 245 244 243 241 240 237 233 231 230 230 230 232 233 235 233 232 230 228 226 225 225 226 226 227 227 228 229 229 229 230 231 233 235 236 237 236 236 237 238 239 239 241 243 244 245 246 246
265 262 262 264 261 255 248 249 252 248 246 251 258 261 260 261 261 259 257 252 252 254 252 246 239 245 267 266 266 265 263 262 255 248 246 246 246 248 249 250 249 246 244 241 238 235 234 233 232 232 233 234 235 235 234 232 231 231 230 230 230 230 229 229 230 230 230 230 230 232 234 236 237 237 235 235 237 238 239 240 241 243 244 245 246 247
264 260 261 262 258 257 258 258 258 253 251 256 260 259 258 262 262 258 257 253 248 244 239 236 226 218 266 264 257 256 258 257 253 250 250 251 250 250 251 252 252 248 245 242 239 237 237 237 236 235 235 234 234 234 234 235 234 234 233 233 233 233 233 232 232 233 233 232 232 232 235 236 236 236 236 236 238 239 241 241 242 244 245 246 248 250
263 263 260 256 255 257 260 261 257 255 257 261 261 256 255 258 257 255 254 247 241 235 234 236 229 215 258 268 255 249 255 257 259 259 258 258 257 256 254 253 254 251 245 243 240 238 237 239 239 238 237 235 233 233 233 234 234 234 235 234 234 235 234 234 234 234 234 234 234 234 235 236 236 236 237 238 240 241 242 243 244 245 247 248 250 251
270 269 260 255 254 252 253 254 252 253 253 255 257 254 252 252 247 247 243 233 227 236 235 238 236 219 230 260 258 257 260 261 265 264 263 266 264 261 259 257 256 254 247 242 240 239 238 239 239 239 239 237 236 234 233 234 234 234 234 234 234 235 235 235 235 235 235 234 235 235 235 236 237 237 238 240 241 242 244 244 245 245 247 248 249 251
271 270 267 262 255 250 250 249 250 251 245 245 247 243 240 233 228 227 213 217 220 233 238 239 237 224 232 251 255 255 258 258 259 261 263 266 264 264 266 262 258 255 250 244 240 238 236 237 239 239 239 238 237 237 235 235 235 235 235 235 235 236 236 237 237 237 237 236 236 237 237 238 238 239 239 240 241 242 243 244 244 244 245 247 249 251
276 273 272 267 258 254 250 246 248 247 239 238 236 230 224 190 216 224 196 218 226 232 240 240 238 229 234 250 256 256 257 260 262 263 265 265 263 261 262 258 253 249 246 244 241 240 238 235 236 237 238 237 236 236 236 235 235 235 235 236 237 238 239 239 240 240 240 240 239 239 239 239 240 240 240 240 241 241 242 243 244 244 244 245 248 249
268 271 267 259 251 247 243 243 248 249 241 238 236 232 229 222 226 235 199 211 208 230 239 233 227 190 215 247 256 259 264 267 265 265 267 269 269 267 262 253 246 242 236 236 237 239 241 237 233 233 234 236 235 235 235 235 235 234 234 236 237 238 239 240 240 241 241 242 241 240 240 239 239 239 239 240 240 240 241 242 242 242 242 243 246 247
253 251 251 253 247 237 235 236 240 245 242 239 238 234 230 226 233 245 247 245 231 233 235 216 208 191 226 254 260 261 266 263 260 263 262 266 272 274 270 260 255 253 250 248 247 248 251 244 236 232 231 234 235 235 236 236 237 237 236 236 236 237 237 238 239 239 240 241 242 242 241 240 239 238 238 238 238 238 239 240 240 240 241 242 244 245
263 250 233 238 241 231 233 234 230 234 238 237 235 234 235 233 235 242 253 256 248 247 235 210 217 215 234 261 263 260 265 264 264 267 265 266 267 265 263 259 257 259 257 257 255 252 250 241 235 232 231 233 235 236 237 237 238 239 238 237 236 236 236 236 237 238 238 239 240 240 240 240 239 238 237 236 237 237 238 238 238 238 238 239 241 243
267 267 248 237 236 231 239 244 232 229 234 238 235 235 238 238 236 236 245 253 240 245 242 224 228 211 210 256 263 259 268 272 275 277 271 267 265 262 260 259 258 260 261 261 251 243 240 240 245 247 240 236 236 237 238 237 237 236 236 236 235 236 235 235 236 236 237 238 238 239 239 239 239 237 236 235 235 236 236 237 237 236 236 238 240 243
265 279 266 255 250 245 252 261 248 236 236 242 243 237 236 240 237 230 225 239 235 235 242 231 236 221 211 244 258 254 261 274 290 300 286 270 266 265 263 263 264 263 260 256 246 239 238 241 249 252 248 243 240 239 236 234 235 234 234 234 233 234 234 234 235 234 235 236 237 238 238 238 239 237 235 234 234 235 235 235 235 235 235 237 240 242
266 284 277 264 258 255 260 268 266 251 241 241 244 241 241 250 255 238 228 233 240 241 241 232 235 229 227 245 257 259 262 269 274 277 277 273 273 275 275 274 273 267 261 252 244 240 239 239 244 249 250 243 236 232 230 229 231 232 233 234 234 234 234 234 234 234 234 234 235 236 237 237 237 236 233 232 232 233 233 234 234 233 235 237 239 241
268 266 267 270 267 264 263 260 260 266 261 258 259 258 259 263 273 268 247 238 237 239 240 234 231 232 237 249 259 264 268 273 274 273 273 271 271 273 276 277 275 271 265 254 242 238 238 242 248 251 248 237 230 231 233 232 230 229 231 235 236 235 234 234 235 235 235 235 236 237 237 236 236 233 230 228 229 231 231 232 232 232 234 236 238 240
266 257 257 269 270 266 263 261 263 269 272 277 283 284 286 288 291 293 267 248 247 248 254 256 247 229 231 245 252 254 259 262 261 262 264 264 262 263 266 267 266 265 262 258 249 240 239 242 248 251 244 232 228 232 239 241 237 233 232 234 237 237 235 235 235 236 237 236 236 236 236 235 233 230 226 225 226 228 229 230 230 232 234 235 237 239
262 260 258 264 268 270 270 266 264 265 266 272 280 280 278 283 282 266 268 291 291 296 299 289 264 220 210 219 225 224 217 202 202 219 235 252 252 253 260 257 252 253 254 255 254 249 245 245 249 254 247 237 231 232 240 244 237 231 231 232 235 236 234 234 234 235 236 235 234 234 234 233 230 226 223 223 224 226 227 229 229 231 233 234 237 239
256 252 253 262 271 274 274 269 266 268 267 267 268 264 260 266 270 258 280 307 307 300 299 301 267 219 211 219 225 224 219 212 222 241 244 261 269 267 278 272 255 246 243 247 251 252 252 253 254 256 253 249 243 239 241 240 229 225 228 230 231 231 231 232 231 231 231 231 231 231 230 230 226 223 221 221 223 225 226 227 229 231 232 234 236 238
247 236 235 257 284 285 281 275 268 260 251 244 234 234 249 273 286 291 297 299 288 273 279 322 281 240 212 213 224 228 228 227 234 254 255 261 274 276 277 289 286 259 242 240 246 248 249 251 251 252 254 255 250 241 237 233 227 226 229 229 229 230 230 230 229 228 228 228 228 227 226 225 223 220 219 220 221 223 225 227 229 230 232 233 236 238
239 235 233 238 246 261 265 263 252 233 230 238 239 247 273 290 290 296 299 289 253 273 280 276 285 273 229 206 218 228 231 235 234 230 229 238 254 265 263 272 307 288 261 252 253 252 250 248 248 249 250 248 242 234 230 229 229 230 231 229 229 230 230 230 229 227 226 225 225 224 222 222 220 218 218 219 220 222 225 227 228 229 231 233 235 237
240 244 248 248 244 244 251 258 263 260 261 267 267 269 278 283 285 290 285 265 261 284 285 273 280 284 256 218 217 228 233 244 253 246 212 212 227 238 238 229 217 346 340 39 310 262 252 247 244 243 241 236 231 229 230 231 232 233 234 233 231 231 230 229 226 224 222 222 221 220 220 220 219 217 217 218 220 222 224 226 227 228 230 232 235 237
237 244 250 250 250 253 256 262 267 267 267 270 271 272 275 276 277 272 264 265 271 279 282 276 276 279 267 248 235 242 255 270 281 279 255 218 211 209 204 193 171 149 121 103 94 92 224 226 228 230 232 235 235 235 236 236 233 233 234 235 234 233 232 227 223 220 219 219 219 218 219 219 218 217 217 218 220 222 223 224 225 227 229 231 234 236
235 243 248 248 253 258 259 261 265 264 263 266 267 270 272 270 268 266 260 261 260 247 261 274 275 275 270 259 248 262 281 290 292 290 277 267 265 248 207 183 177 173 162 141 115 353 268 236 229 224 227 235 238 238 238 236 235 234 234 234 236 235 232 226 220 218 219 219 218 217 217 217 216 217 217 218 220 221 222 223 224 226 228 231 233 235
234 239 245 248 254 261 262 261 261 260 260 263 265 268 272 270 267 265 260 257 255 247 253 266 273 276 271 261 257 271 285 289 289 287 279 281 290 282 264 249 226 207 199 189 186 283 269 268 288 297 286 263 249 243 240 238 237 237 235 234 234 233 229 224 219 217 218 219 217 216 215 216 217 217 218 218 219 220 221 223 224 226 228 230 233 235
234 236 243 250 256 262 263 262 258 255 257 264 267 269 270 269 266 261 261 262 260 259 261 266 274 276 267 260 266 277 283 285 284 282 281 288 295 290 280 275 265 252 247 246 254 272 270 268 274 286 312 311 285 259 248 243 238 236 234 233 232 229 224 220 218 216 217 218 217 216 216 217 217 217 217 217 218 219 221 223 225 226 229 231 233 235
235 237 242 246 249 256 261 264 257 248 252 261 265 267 265 260 258 256 258 261 260 264 269 266 271 274 266 263 272 279 281 283 280 279 283 287 290 291 288 286 279 269 264 262 262 268 272 273 274 279 305 307 284 267 256 251 242 235 232 229 228 226 220 217 216 216 216 216 216 216 216 215 215 215 216 217 218 220 222 224 226 227 229 231 233 235
236 237 238 235 233 247 258 265 250 230 235 255 261 271 272 262 259 259 260 263 262 262 264 260 265 275 273 272 277 276 276 280 278 278 281 283 286 290 290 291 286 276 269 268 268 269 271 274 278 275 266 272 269 255 242 242 241 237 233 229 226 224 220 216 214 215 216 216 215 214 214 212 213 214 216 218 220 221 223 225 227 229 230 232 233 234
234 235 236 229 227 244 252 246 215 186 199 250 260 274 282 273 267 264 263 265 264 261 263 264 269 276 276 276 277 274 275 279 280 279 281 283 288 291 289 288 287 279 272 266 264 267 269 270 272 267 256 253 255 249 242 238 234 231 231 231 228 225 222 218 215 213 214 214 214 213 212 211 213 215 217 219 220 223 225 226 228 229 229 230 231 232
234 233 232 227 228 236 223 170 148 188 232 253 264 270 273 275 275 270 267 268 267 264 265 265 265 271 276 279 279 276 275 278 281 281 281 283 286 286 284 285 285 282 278 268 258 257 259 259 257 253 253 255 255 255 255 251 246 241 235 232 230 227 224 221 219 216 214 212 211 210 210 211 213 215 217 220 221 224 225 226 226 226 226 227 229 230
235 233 227 223 225 228 207 177 200 246 252 258 265 266 264 268 271 266 265 271 274 271 266 263 265 273 278 279 279 278 276 278 280 280 279 280 280 279 279 282 283 283 282 274 261 250 247 249 247 243 248 254 256 258 258 258 260 259 252 244 236 231 227 224 221 218 216 213 210 208 208 211 214 217 219 220 222 223 224 223 223 223 224 225 226 227
233 234 228 222 223 228 226 220 235 259 267 263 261 262 262 266 272 272 270 278 286 282 270 267 271 275 276 276 277 276 276 277 277 275 277 279 278 276 277 279 280 281 280 277 268 253 242 240 241 241 244 249 254 257 259 260 261 259 257 252 246 240 234 228 223 220 217 215 211 209 208 210 214 217 219 221 222 221 221 220 219 220 222 223 224 225
231 233 229 223 223 229 231 235 242 250 260 256 255 261 265 267 276 280 273 276 283 281 275 273 272 271 272 273 275 274 274 274 273 274 279 283 280 278 277 276 276 276 276 276 272 261 249 237 233 235 237 241 246 249 252 256 257 254 252 250 248 246 244 238 232 224 219 216 214 211 210 210 214 217 219 220 220 220 218 216 216 217 218 219 220 221
230 230 228 225 226 226 221 215 217 224 246 254 257 266 270 268 278 287 272 273 279 278 275 274 272 271 271 271 273 276 275 272 272 274 278 277 274 271 268 267 267 269 273 275 273 268 258 247 237 232 229 230 233 236 241 246 249 250 250 248 246 244 244 244 241 234 225 218 215 213 212 213 214 215 216 217 217 215 212 211 211 212 213 214 214 215
223 223 222 219 222 225 220 219 230 237 248 255 259 265 267 270 282 296 251 276 285 282 274 271 272 278 279 275 273 273 273 274 275 276 274 271 269 267 265 265 264 263 264 266 268 269 266 259 251 241 230 224 224 228 233 239 245 248 248 248 246 242 240 240 241 240 234 225 218 213 213 215 215 214 213 212 209 206 204 204 206 208 210 211 212 213
217 219 219 219 222 225 222 224 236 243 249 254 257 260 264 268 268 216 249 279 289 285 274 270 272 277 277 273 271 272 275 279 281 279 274 271 270 267 262 258 256 253 251 253 257 262 264 264 262 255 245 233 224 224 228 234 241 247 248 248 248 245 242 238 237 238 238 233 225 218 215 215 216 214 209 204 200 198 200 203 206 208 210 212 214 215
210 214 217 219 221 222 222 226 237 246 251 254 255 258 260 254 240 250 270 287 293 287 280 277 275 275 272 268 269 272 276 279 281 281 278 275 274 270 261 253 250 248 247 249 253 256 257 260 262 261 257 248 233 225 226 230 236 243 247 248 248 247 244 240 237 236 235 235 232 225 220 218 217 215 207 200 196 197 200 203 207 210 212 215 217 219
214 210 207 213 218 219 221 223 230 246 253 255 251 251 254 251 253 273 289 294 292 289 286 280 277 275 271 266 266 269 273 277 279 279 278 278 280 281 276 268 261 257 254 252 250 252 253 255 257 260 260 255 244 232 227 229 233 238 243 246 247 248 246 242 240 238 236 235 234 231 226 222 218 215 208 201 198 199 201 204 208 211 213 216 218 221
214 208 206 213 215 210 204 212 229 244 256 259 252 250 256 262 271 286 291 287 287 285 281 279 276 273 269 267 267 268 271 274 276 277 279 280 281 284 287 285 278 272 267 262 256 253 251 252 254 257 259 256 250 242 234 232 234 237 240 243 246 247 247 245 242 241 239 238 236 233 230 226 221 217 210 205 203 203 203 206 209 211 214 217 220 223
224 229 231 226 221 219 220 229 241 252 259 259 255 257 264 270 275 278 279 283 285 280 276 275 273 268 265 264 264 265 266 269 273 276 279 282 283 284 288 291 290 284 278 274 268 262 257 254 254 255 256 255 252 248 243 238 239 240 241 242 244 246 246 246 244 242 241 240 238 236 233 230 226 222 215 210 208 208 208 209 211 213 216 219 222 225
237 241 240 233 229 230 233 238 246 254 255 253 255 260 265 267 269 271 277 282 282 278 274 270 266 265 264 262 261 262 263 268 275 281 284 287 289 290 291 293 296 293 286 280 274 269 264 259 256 255 255 254 251 251 250 247 247 247 245 243 244 245 246 245 245 243 241 239 239 238 236 234 230 227 223 217 214 213 213 214 215 217 219 222 225 228
234 236 235 231 229 229 233 240 247 250 251 254 258 261 265 268 271 274 278 280 279 277 275 270 267 270 272 272 273 274 274 277 282 284 286 289 292 293 293 294 294 293 290 283 274 269 265 261 258 257 256 255 251 251 253 253 253 254 252 247 245 245 247 247 246 245 243 240 237 237 237 236 234 231 229 225 221 218 217 217 218 220 222 224 227 229
235 233 227 225 227 230 237 245 249 250 252 256 258 262 267 271 275 276 276 274 273 272 271 270 271 273 276 278 279 280 279 280 280 281 283 284 285 285 286 287 287 287 286 279 269 261 258 256 255 255 256 256 254 252 252 254 256 257 257 253 248 246 247 249 248 247 246 244 239 236 235 235 235 235 233 230 227 225 223 222 222 223 225 228 230 231
238 232 225 224 227 232 239 244 246 248 252 256 259 264 269 273 274 273 270 268 268 266 265 267 270 271 273 273 273 272 273 273 276 279 280 278 276 274 273 273 274 275 277 274 267 259 251 247 246 247 249 252 254 253 252 253 255 257 257 255 252 249 248 250 251 250 249 247 244 239 235 234 234 236 236 234 232 229 227 227 226 226 228 230 233 234
234 232 230 227 224 230 239 244 245 248 252 256 261 267 273 276 273 269 267 266 263 261 263 266 267 265 264 265 264 264 266 268 271 273 274 272 270 267 265 266 266 267 270 270 269 266 258 249 247 246 244 245 248 250 251 251 253 256 257 256 253 251 249 249 249 249 250 249 248 245 241 237 235 235 237 237 236 233 230 229 229 229 230 231 233 235
237 236 235 231 229 237 244 246 248 253 257 261 265 270 273 272 268 265 264 262 260 261 264 265 262 258 256 257 257 258 258 260 261 262 265 266 264 263 264 265 264 265 267 268 271 272 268 260 255 254 251 246 245 245 247 247 248 251 254 255 253 252 251 249 247 247 248 248 248 248 246 241 238 237 237 237 237 235 233 231 230 230 231 232 234 236
Height
3033 3032 3029 3028 3028 3029 3031 3033 3034 3035 3037 3037 3037 3036 3035 3033 3030 3031 3036 3038 3042 3041 3033 3032 3028 3023 3027 3031 3035 3039 3040 3037 3034 3035 3036 3038 3040 3041 3042 3043 3045 3046 3050 3055 3057 3058 3059 3059 3060 3062 3063 3064 3065 3067 3069 3070 3073 3076 3078 3080 3082 3086 3087 3088 3090 3093 3095 3096 3098 3100 3102 3104 3106 3108 3110 3111 3112 3114 3115 3117 3117 3118 3119 3120 3121 3122
3029 3026 3024 3026 3027 3029 3031 3033 3035 3034 3034 3035 3035 3034 3032 3029 3027 3029 3034 3035 3039 3036 3028 3029 3027 3020 3022 3026 3030 3034 3033 3029 3027 3030 3031 3033 3035 3036 3037 3039 3040 3043 3046 3049 3051 3052 3054 3055 3056 3057 3058 3060 3061 3064 3066 3067 3071 3073 3075 3077 3080 3083 3084 3086 3088 3090 3091 3094 3096 3098 3100 3102 3104 3106 3107 3108 3109 3110 3111 3112 3113 3115 3116 3116 3117 3117
3024 3021 3022 3025 3026 3028 3030 3032 3033 3031 3032 3032 3032 3032 3027 3024 3026 3027 3030 3033 3036 3032 3025 3025 3023 3014 3017 3022 3024 3026 3026 3023 3023 3025 3027 3028 3030 3030 3031 3033 3036 3038 3041 3043 3045 3047 3049 3050 3052 3052 3054 3056 3058 3061 3062 3064 3067 3069 3071 3073 3077 3079 3080 3083 3085 3086 3089 3091 3093 3095 3097 3099 3100 3102 3103 3103 3104 3106 3107 3108 3110 3111 3112 3112 3113 3114
3020 3018 3022 3025 3025 3026 3027 3028 3029 3028 3028 3028 3029 3028 3021 3021 3026 3024 3027 3032 3032 3030 3025 3023 3019 3010 3011 3015 3015 3018 3019 3018 3020 3020 3020 3022 3023 3024 3026 3029 3031 3032 3035 3038 3040 3042 3044 3046 3047 3048 3050 3052 3055 3057 3058 3060 3062 3064 3067 3071 3073 3075 3077 3080 3081 3084 3086 3087 3089 3090 3093 3095 3095 3097 3098 3099 3100 3101 3103 3105 3107 3108 3109 3109 3110 3111
3016 3016 3021 3022 3022 3023 3024 3024 3025 3025 3023 3023 3024 3023 3018 3019 3024 3023 3026 3030 3029 3028 3024 3023 3017 3002 3002 3008 3006 3011 3015 3013 3015 3015 3014 3016 3017 3020 3022 3023 3025 3027 3030 3033 3035 3038 3039 3041 3043 3044 3047 3049 3050 3052 3054 3057 3059 3062 3065 3068 3070 3072 3073 3076 3078 3080 3082 3082 3084 3086 3087 3089 3090 3091 3093 3094 3097 3099 3101 3103 3104 3105 3106 3107 3107 3108
3012 3015 3018 3017 3018 3019 3019 3019 3021 3021 3020 3018 3017 3018 3017 3018 3022 3023 3025 3027 3026 3023 3021 3025 3017 2995 2992 3002 3000 3004 3010 3007 3009 3011 3009 3010 3012 3014 3016 3017 3021 3023 3026 3028 3030 3033 3035 3037 3039 3040 3042 3044 3045 3048 3051 3054 3057 3059 3062 3064 3066 3068 3070 3072 3074 3076 3077 3078 3080 3081 3083 3084 3086 3088 3090 3093 3095 3097 3098 3100 3101 3102 3102 3103 3104 3105
3007 3011 3013 3013 3014 3015 3015 3015 3016 3019 3017 3012 3011 3015 3016 3017 3020 3021 3022 3024 3022 3018 3017 3022 3019 2998 2985 2990 2994 2997 3002 3001 3003 3006 3003 3004 3007 3008 3010 3013 3016 3019 3021 3024 3026 3028 3031 3032 3035 3036 3038 3040 3041 3045 3048 3050 3053 3054 3057 3059 3062 3064 3066 3068 3070 3071 3072 3074 3075 3077 3079 3081 3083 3085 3088 3091 3092 3093 3094 3095 3096 3097 3098 3099 3100 3101
3003 3007 3008 3008 3010 3011 3011 3010 3011 3015 3013 3006 3009 3014 3015 3015 3016 3016 3018 3018 3016 3016 3015 3014 3019 3009 2981 2975 2987 2991 2993 2995 2995 2997 2997 2998 3002 3003 3005 3009 3012 3015 3017 3020 3022 3023 3026 3028 3030 3032 3034 3037 3039 3042 3045 3046 3047 3049 3052 3055 3057 3059 3061 3063 3065 3066 3068 3069 3071 3073 3075 3077 3078 3081 3085 3087 3087 3088 3089 3090 3091 3092 3093 3094 3096 3097
3003 3004 3004 3006 3007 3006 3006 3006 3008 3011 3008 3005 3010 3012 3012 3013 3012 3013 3014 3012 3013 3014 3010 3008 3016 3011 2979 2966 2981 2985 2986 2988 2986 2989 2992 2995 3000 3000 3002 3005 3008 3011 3013 3016 3018 3018 3021 3023 3025 3028 3030 3033 3036 3038 3040 3041 3043 3045 3048 3050 3051 3053 3055 3058 3060 3061 3063 3065 3067 3069 3070 3072 3074 3077 3080 3081 3082 3083 3084 3086 3087 3088 3089 3090 3092 3093
3000 3001 3002 3003 3002 3001 3002 3004 3006 3007 3005 3005 3009 3009 3009 3010 3009 3011 3009 3008 3012 3007 3002 3004 3010 3006 2979 2961 2974 2979 2978 2980 2980 2984 2989 2992 2996 2997 2998 3001 3003 3006 3008 3010 3012 3014 3016 3019 3021 3024 3026 3028 3030 3033 3035 3036 3038 3040 3042 3044 3046 3048 3050 3052 3055 3056 3058 3060 3062 3063 3065 3067 3069 3072 3074 3076 3076 3078 3080 3081 3082 3084 3085 3087 3088 3089
2996 2998 2999 2999 2998 2999 3000 3001 3002 3003 3004 3005 3006 3004 3006 3006 3005 3007 3004 3006 3007 2998 2996 2998 3000 3004 2982 2956 2964 2973 2971 2975 2977 2980 2985 2988 2991 2992 2994 2996 2998 3000 3003 3005 3007 3009 3012 3014 3017 3019 3020 3022 3025 3027 3029 3031 3033 3034 3036 3039 3041 3043 3045 3047 3049 3051 3053 3055 3056 3058 3060 3062 3065 3067 3069 3070 3072 3074 3075 3077 3079 3080 3082 3083 3085 3085
2993 2994 2994 2994 2995 2997 2997 2997 2998 3000 3002 3002 3001 3002 3002 3001 3000 3001 3000 3002 3000 2990 2990 2991 2992 2999 2983 2955 2958 2968 2968 2973 2976 2976 2980 2983 2986 2988 2989 2991 2993 2995 2997 3000 3002 3004 3007 3009 3010 3012 3014 3017 3019 3021 3023 3025 3027 3029 3031 3033 3035 3037 3039 3041 3044 3046 3048 3050 3051 3053 3056 3058 3060 3062 3064 3066 3068 3070 3071 3073 3075 3077 3078 3079 3081 3081
2987 2987 2989 2991 2991 2994 2994 2993 2994 2996 2998 2998 2997 2999 2999 2997 2995 2994 2993 2992 2990 2984 2984 2986 2987 2989 2978 2959 2957 2965 2967 2971 2973 2974 2977 2979 2982 2984 2985 2987 2989 2990 2992 2994 2996 2998 3001 3003 3004 3007 3009 3012 3014 3016 3018 3020 3022 3024 3026 3028 3030 3031 3034 3036 3038 3041 3042 3044 3047 3049 3051 3053 3055 3057 3059 3061 3063 3065 3067 3069 3071 3072 3074 3075 3077 3078
2982 2982 2985 2986 2987 2989 2989 2988 2989 2990 2993 2993 2992 2994 2993 2991 2990 2987 2985 2983 2982 2980 2978 2982 2984 2980 2973 2960 2954 2960 2965 2968 2971 2972 2974 2976 2978 2981 2983 2984 2984 2985 2987 2989 2991 2993 2995 2997 2999 3001 3003 3005 3007 3010 3012 3014 3016 3018 3020 3022 3024 3027 3029 3031 3033 3035 3037 3039 3042 3044 3046 3049 3050 3052 3055 3057 3059 3061 3063 3065 3067 3068 3070 3071 3073 3074
2981 2979 2980 2981 2982 2983 2983 2983 2984 2986 2987 2986 2987 2989 2986 2984 2983 2980 2978 2976 2976 2975 2974 2978 2978 2971 2966 2956 2952 2959 2963 2966 2969 2969 2971 2973 2974 2976 2978 2979 2981 2982 2983 2985 2986 2988 2990 2992 2994 2995 2997 2998 3000 3003 3004 3007 3009 3012 3015 3017 3019 3021 3023 3025 3027 3029 3031 3034 3036 3038 3041 3043 3045 3047 3050 3052 3055 3057 3059 3061 3062 3064 3066 3068 3070 3071
2978 2976 2976 2977 2978 2978 2978 2978 2980 2982 2981 2980 2984 2983 2977 2978 2980 2976 2973 2972 2973 2972 2969 2969 2967 2961 2960 2954 2953 2959 2959 2961 2966 2966 2967 2969 2970 2973 2973 2973 2976 2978 2979 2981 2982 2984 2986 2987 2988 2989 2991 2992 2994 2996 2998 3000 3003 3006 3009 3011 3013 3016 3017 3019 3021 3023 3026 3028 3030 3033 3035 3037 3039 3042 3044 3047 3050 3052 3054 3056 3058 3060 3062 3064 3065 3066
2975 2972 2972 2974 2974 2975 2974 2974 2976 2977 2975 2975 2977 2973 2972 2978 2979 2974 2970 2970 2972 2968 2962 2960 2958 2959 2961 2951 2948 2955 2955 2956 2961 2961 2962 2964 2967 2971 2969 2970 2972 2973 2975 2976 2977 2980 2981 2982 2983 2984 2986 2986 2988 2990 2992 2995 2998 3000 3003 3005 3007 3009 3011 3013 3015 3017 3020 3022 3024 3026 3028 3031 3033 3036 3039 3042 3045 3047 3049 3051 3053 3055 3057 3059 3061 3061
2974 2968 2969 2972 2971 2971 2971 2971 2971 2972 2972 2971 2970 2970 2973 2976 2973 2972 2970 2968 2967 2963 2956 2955 2954 2957 2959 2947 2942 2951 2952 2953 2956 2956 2958 2960 2962 2965 2965 2967 2969 2969 2971 2971 2972 2974 2976 2978 2979 2979 2981 2982 2983 2985 2987 2989 2992 2994 2996 2998 3001 3002 3005 3007 3009 3012 3014 3016 3018 3020 3023 3025 3027 3031 3034 3036 3039 3042 3044 3046 3048 3051 3053 3055 3056 3057
2973 2967 2965 2968 2969 2967 2968 2968 2967 2968 2969 2967 2966 2969 2970 2968 2966 2967 2965 2961 2960 2957 2951 2950 2950 2951 2952 2944 2941 2948 2951 2952 2954 2954 2955 2956 2957 2959 2960 2962 2964 2965 2966 2967 2968 2969 2971 2972 2973 2974 2975 2976 2978 2979 2981 2983 2985 2987 2989 2992 2994 2996 2999 3001 3003 3006 3008 3010 3012 3014 3017 3019 3022 3025 3028 3030 3033 3035 3038 3040 3043 3046 3048 3050 3052 3053
2972 2969 2963 2963 2966 2965 2964 2966 2965 2964 2964 2963 2963 2965 2964 2963 2961 2959 2957 2955 2954 2952 2947 2946 2945 2944 2945 2944 2942 2946 2950 2952 2953 2954 2955 2954 2954 2956 2957 2958 2960 2960 2961 2962 2964 2965 2967 2968 2968 2970 2970 2971 2973 2975 2976 2978 2979 2981 2984 2986 2988 2990 2992 2995 2997 3000 3002 3004 3007 3009 3011 3013 3015 3018 3021 3024 3027 3029 3032 3035 3038 3041 3044 3045 3047 3048
2970 2969 2962 2959 2963 2963 2961 2962 2963 2962 2961 2961 2960 2960 2959 2958 2957 2954 2951 2950 2950 2948 2944 2942 2938 2936 2941 2944 2943 2945 2949 2950 2951 2952 2951 2952 2952 2952 2953 2954 2955 2955 2956 2957 2959 2960 2962 2964 2965 2966 2966 2966 2968 2970 2971 2973 2975 2977 2979 2980 2982 2984 2986 2989 2991 2994 2996 2999 3001 3003 3005 3007 3009 3012 3015 3018 3021 3024 3027 3030 3033 3036 3038 3040 3042 3044
2966 2965 2960 2957 2958 2958 2957 2959 2960 2960 2960 2959 2958 2958 2957 2956 2956 2954 2950 2946 2946 2945 2942 2939 2935 2934 2940 2943 2942 2944 2945 2945 2945 2944 2944 2945 2946 2946 2946 2947 2947 2948 2950 2952 2953 2956 2957 2958 2960 2961 2962 2962 2964 2965 2967 2968 2970 2972 2974 2976 2977 2978 2980 2983 2985 2988 2991 2994 2996 2997 3000 3002 3004 3006 3009 3012 3015 3018 3022 3025 3029 3031 3033 3035 3038 3040
2962 2961 2957 2955 2954 2953 2953 2955 2956 2956 2957 2957 2956 2955 2955 2955 2955 2955 2952 2948 2945 2942 2940 2939 2934 2934 2938 2938 2938 2940 2941 2941 2940 2939 2939 2940 2940 2941 2941 2940 2941 2942 2944 2946 2948 2950 2952 2954 2955 2956 2958 2959 2960 2961 2963 2964 2965 2967 2969 2970 2972 2973 2975 2977 2980 2983 2986 2988 2990 2992 2994 2996 2998 3001 3003 3006 3010 3013 3017 3021 3024 3026 3028 3031 3033 3035
2958 2956 2954 2952 2950 2949 2949 2950 2951 2952 2953 2954 2953 2952 2952 2953 2953 2953 2952 2951 2947 2943 2942 2939 2933 2930 2933 2933 2935 2937 2937 2937 2936 2935 2935 2936 2936 2937 2936 2936 2937 2937 2938 2940 2942 2944 2947 2948 2950 2952 2953 2955 2956 2958 2959 2960 2961 2962 2964 2965 2967 2969 2970 2972 2974 2977 2980 2982 2984 2987 2989 2991 2994 2996 2999 3002 3005 3009 3013 3016 3019 3021 3024 3027 3029 3031
2953 2952 2951 2950 2950 2948 2946 2947 2948 2948 2949 2949 2948 2948 2949 2950 2950 2950 2950 2951 2948 2943 2942 2942 2934 2928 2928 2930 2932 2932 2931 2932 2933 2932 2932 2933 2934 2934 2934 2933 2933 2933 2933 2935 2937 2940 2942 2943 2945 2947 2948 2950 2951 2953 2954 2956 2957 2958 2959 2960 2962 2964 2965 2967 2969 2971 2974 2976 2979 2981 2984 2986 2989 2991 2994 2998 3001 3005 3009 3011 3014 3017 3020 3022 3025 3027
2950 2948 2948 2948 2948 2947 2944 2942 2943 2944 2944 2944 2944 2945 2946 2947 2947 2948 2947 2948 2946 2940 2939 2941 2936 2927 2923 2925 2926 2926 2927 2928 2929 2930 2929 2931 2932 2931 2932 2931 2930 2930 2930 2930 2933 2936 2938 2939 2941 2942 2944 2945 2946 2948 2950 2951 2953 2954 2955 2956 2957 2959 2960 2961 2963 2965 2968 2971 2973 2976 2979 2982 2984 2987 2990 2994 2998 3001 3004 3007 3010 3012 3015 3018 3021 3023
2946 2944 2942 2942 2941 2940 2938 2936 2938 2941 2940 2940 2940 2942 2943 2943 2943 2945 2944 2943 2943 2940 2935 2935 2936 2928 2920 2919 2921 2922 2924 2924 2925 2926 2927 2927 2929 2929 2929 2929 2928 2929 2928 2928 2929 2931 2933 2935 2936 2937 2939 2940 2941 2943 2945 2946 2948 2949 2950 2952 2953 2954 2955 2957 2958 2960 2962 2965 2968 2971 2975 2978 2981 2984 2987 2991 2994 2997 3000 3002 3005 3008 3012 3014 3016 3018
2941 2938 2936 2937 2934 2933 2933 2933 2935 2938 2936 2935 2936 2936 2938 2940 2940 2940 2939 2938 2940 2939 2931 2929 2933 2929 2918 2915 2919 2920 2921 2921 2922 2923 2923 2924 2925 2925 2925 2926 2926 2927 2927 2926 2926 2927 2929 2930 2931 2932 2933 2934 2936 2937 2939 2941 2942 2944 2946 2947 2949 2950 2951 2953 2954 2956 2958 2961 2964 2968 2971 2975 2978 2981 2984 2987 2990 2993 2995 2998 3001 3004 3007 3009 3012 3014
2936 2933 2932 2933 2931 2929 2931 2931 2932 2934 2932 2932 2932 2931 2932 2935 2935 2935 2934 2934 2935 2935 2929 2926 2928 2927 2918 2914 2915 2918 2920 2919 2919 2921 2921 2921 2922 2922 2922 2923 2924 2925 2925 2924 2924 2924 2925 2926 2927 2928 2929 2929 2931 2932 2934 2936 2937 2939 2941 2942 2944 2946 2948 2949 2951 2953 2955 2958 2961 2964 2968 2971 2974 2977 2980 2982 2985 2988 2991 2994 2997 3000 3003 3005 3008 3010
2931 2929 2929 2930 2929 2926 2926 2927 2928 2930 2929 2929 2928 2928 2928 2929 2930 2929 2929 2929 2930 2929 2928 2924 2923 2922 2918 2914 2913 2916 2919 2918 2917 2918 2919 2919 2919 2919 2919 2920 2920 2921 2922 2922 2922 2922 2922 2922 2923 2925 2926 2927 2927 2928 2929 2931 2933 2935 2936 2938 2940 2942 2944 2945 2947 2949 2951 2954 2957 2961 2964 2967 2969 2972 2975 2978 2981 2984 2987 2990 2993 2996 2998 3001 3004 3006
2927 2925 2926 2929 2927 2922 2920 2922 2925 2928 2928 2927 2926 2927 2926 2925 2924 2924 2923 2924 2924 2923 2923 2922 2919 2915 2915 2915 2914 2913 2915 2915 2914 2915 2916 2916 2917 2917 2917 2917 2917 2918 2919 2920 2920 2920 2920 2920 2921 2921 2923 2924 2925 2926 2927 2928 2929 2931 2932 2933 2935 2937 2939 2941 2943 2945 2948 2951 2954 2957 2959 2962 2965 2968 2971 2974 2977 2980 2983 2986 2989 2992 2994 2997 3000 3002
2922 2921 2923 2926 2924 2919 2916 2919 2923 2926 2928 2926 2922 2920 2918 2916 2916 2917 2918 2918 2918 2918 2918 2917 2914 2909 2910 2913 2913 2910 2911 2911 2911 2913 2914 2913 2914 2914 2914 2915 2915 2914 2915 2916 2917 2918 2918 2919 2919 2920 2920 2921 2921 2922 2924 2925 2926 2927 2928 2929 2930 2932 2935 2937 2939 2942 2944 2946 2949 2952 2955 2958 2961 2964 2967 2970 2973 2976 2979 2982 2985 2987 2990 2993 2996 2998
2917 2917 2919 2921 2920 2916 2915 2917 2919 2924 2927 2923 2914 2910 2909 2910 2911 2912 2913 2914 2915 2915 2913 2910 2908 2907 2907 2907 2908 2907 2908 2909 2909 2910 2911 2910 2910 2911 2911 2912 2912 2912 2913 2914 2914 2915 2916 2916 2917 2918 2919 2918 2918 2918 2919 2921 2922 2923 2924 2925 2926 2928 2931 2932 2935 2937 2940 2942 2945 2948 2951 2954 2957 2960 2963 2966 2969 2972 2975 2977 2981 2984 2987 2990 2992 2993
2912 2913 2914 2916 2916 2913 2913 2915 2918 2922 2921 2913 2905 2905 2907 2907 2907 2906 2905 2906 2908 2909 2907 2905 2905 2905 2904 2902 2904 2904 2904 2904 2905 2905 2906 2907 2907 2907 2907 2908 2909 2910 2910 2911 2912 2912 2913 2914 2915 2916 2917 2917 2916 2916 2916 2916 2917 2919 2921 2922 2923 2925 2927 2929 2931 2933 2936 2938 2941 2944 2947 2950 2953 2957 2960 2963 2966 2968 2971 2974 2977 2980 2983 2985 2987 2989
2907 2908 2910 2911 2912 2911 2911 2914 2916 2914 2908 2902 2901 2903 2904 2902 2902 2901 2900 2901 2903 2904 2903 2902 2901 2901 2899 2898 2899 2900 2899 2899 2900 2900 2903 2904 2905 2905 2904 2904 2905 2907 2907 2908 2909 2909 2910 2911 2912 2913 2914 2914 2914 2914 2913 2914 2915 2917 2918 2919 2920 2922 2923 2925 2928 2930 2932 2934 2937 2940 2943 2947 2950 2953 2956 2959 2961 2964 2967 2970 2973 2976 2979 2981 2984 2986
2902 2903 2904 2905 2906 2907 2907 2908 2906 2901 2899 2899 2899 2899 2898 2898 2897 2897 2896 2896 2898 2900 2899 2898 2897 2897 2897 2895 2894 2896 2896 2896 2896 2896 2899 2900 2901 2902 2901 2900 2901 2903 2903 2904 2905 2905 2906 2907 2908 2909 2909 2909 2909 2909 2910 2911 2913 2915 2917 2918 2919 2919 2921 2922 2924 2926 2929 2931 2933 2936 2940 2943 2946 2949 2952 2955 2957 2960 2963 2966 2970 2972 2975 2977 2980 2982
2896 2897 2899 2900 2900 2900 2900 2900 2900 2899 2898 2897 2893 2891 2892 2893 2893 2894 2892 2891 2894 2897 2897 2896 2895 2894 2893 2892 2891 2892 2894 2893 2891 2892 2895 2896 2896 2897 2897 2897 2898 2898 2899 2900 2901 2901 2902 2903 2903 2904 2904 2905 2905 2905 2907 2909 2911 2913 2915 2916 2918 2919 2920 2920 2921 2923 2925 2928 2931 2933 2936 2939 2942 2945 2948 2951 2953 2956 2959 2963 2966 2968 2971 2973 2976 2978
2890 2891 2893 2894 2894 2894 2896 2897 2899 2899 2893 2887 2885 2886 2889 2890 2891 2893 2892 2890 2891 2893 2893 2893 2892 2890 2889 2889 2888 2890 2891 2888 2886 2888 2892 2892 2892 2893 2893 2893 2894 2894 2894 2895 2897 2898 2898 2898 2899 2900 2901 2902 2903 2904 2905 2907 2908 2910 2912 2913 2915 2917 2918 2919 2919 2920 2922 2925 2928 2930 2933 2935 2938 2941 2944 2947 2950 2953 2956 2959 2962 2964 2967 2970 2972 2974
2885 2887 2889 2890 2890 2891 2892 2891 2892 2889 2881 2878 2880 2884 2887 2888 2889 2892 2892 2888 2885 2886 2887 2887 2887 2887 2886 2886 2886 2887 2888 2884 2882 2885 2889 2890 2889 2890 2890 2890 2891 2891 2891 2891 2892 2894 2895 2895 2895 2896 2898 2899 2900 2901 2903 2904 2905 2906 2908 2910 2911 2913 2914 2916 2917 2918 2920 2921 2924 2927 2930 2932 2934 2937 2940 2943 2946 2950 2953 2956 2958 2961 2964 2966 2968 2970
2879 2881 2883 2883 2883 2883 2884 2884 2882 2878 2873 2873 2877 2881 2883 2884 2886 2891 2890 2882 2877 2879 2881 2882 2883 2884 2884 2883 2883 2883 2883 2881 2881 2882 2885 2886 2885 2886 2887 2887 2888 2887 2887 2887 2888 2889 2891 2891 2892 2893 2894 2895 2896 2897 2899 2900 2901 2902 2904 2906 2907 2908 2909 2911 2913 2916 2917 2919 2920 2923 2925 2928 2930 2933 2936 2939 2943 2947 2950 2953 2955 2957 2959 2962 2964 2966
2869 2872 2874 2874 2874 2876 2877 2877 2874 2869 2867 2870 2874 2876 2879 2882 2885 2886 2880 2873 2873 2877 2879 2879 2880 2880 2881 2880 2879 2879 2879 2879 2879 2879 2880 2880 2880 2881 2882 2883 2883 2884 2884 2883 2883 2885 2886 2888 2888 2889 2890 2891 2892 2893 2894 2896 2897 2898 2900 2902 2903 2904 2906 2908 2910 2912 2913 2916 2918 2919 2921 2923 2926 2929 2932 2936 2940 2944 2946 2949 2951 2953 2956 2958 2960 2962
2862 2864 2865 2866 2867 2869 2870 2870 2869 2863 2861 2866 2870 2872 2875 2878 2878 2875 2871 2871 2873 2874 2875 2875 2875 2875 2876 2876 2875 2875 2875 2875 2875 2875 2875 2875 2874 2875 2877 2878 2878 2879 2880 2880 2880 2880 2881 2883 2885 2885 2886 2887 2888 2888 2889 2891 2893 2894 2896 2898 2900 2901 2903 2904 2906 2907 2909 2911 2914 2916 2918 2920 2922 2925 2929 2932 2935 2938 2941 2944 2947 2949 2951 2953 2956 2958
2849 2852 2855 2857 2860 2863 2866 2868 2865 2856 2853 2859 2865 2867 2868 2869 2868 2868 2868 2870 2870 2870 2870 2871 2870 2870 2872 2872 2872 2872 2871 2870 2871 2871 2871 2870 2870 2871 2871 2872 2873 2874 2875 2876 2876 2876 2877 2879 2881 2882 2882 2883 2884 2884 2884 2885 2887 2889 2891 2893 2895 2897 2899 2901 2902 2904 2906 2908 2910 2913 2915 2917 2919 2922 2925 2928 2930 2933 2937 2940 2942 2945 2947 2949 2951 2953
2840 2844 2847 2848 2850 2853 2854 2852 2847 2843 2846 2855 2860 2860 2860 2862 2864 2866 2866 2866 2866 2866 2867 2867 2866 2867 2868 2868 2869 2868 2867 2867 2867 2867 2867 2866 2866 2867 2867 2867 2868 2869 2869 2870 2871 2871 2873 2874 2876 2878 2879 2879 2880 2880 2880 2880 2882 2884 2886 2888 2891 2893 2895 2897 2899 2901 2903 2904 2906 2909 2911 2914 2916 2918 2921 2924 2927 2929 2932 2934 2937 2940 2942 2945 2947 2949
2833 2834 2835 2835 2836 2838 2838 2836 2837 2842 2848 2853 2854 2855 2856 2858 2861 2863 2862 2862 2863 2863 2863 2863 2864 2864 2865 2865 2865 2864 2864 2864 2864 2864 2864 2863 2863 2863 2863 2862 2862 2862 2863 2864 2865 2866 2868 2870 2872 2874 2875 2876 2876 2876 2876 2876 2877 2879 2881 2883 2885 2888 2891 2893 2895 2897 2900 2901 2902 2904 2907 2909 2912 2915 2917 2920 2923 2925 2928 2930 2932 2935 2938 2940 2943 2945
2827 2828 2830 2831 2833 2835 2835 2836 2839 2843 2846 2847 2850 2852 2854 2855 2857 2858 2859 2859 2859 2859 2860 2860 2860 2861 2861 2861 2861 2861 2861 2861 2861 2861 2861 2860 2860 2860 2859 2858 2858 2857 2857 2858 2859 2861 2863 2866 2868 2869 2870 2872 2872 2872 2873 2873 2873 2875 2876 2878 2880 2883 2885 2888 2890 2893 2895 2897 2899 2900 2902 2905 2908 2911 2913 2916 2918 2921 2924 2926 2929 2931 2934 2936 2938 2941
2824 2826 2828 2829 2832 2833 2833 2834 2837 2840 2842 2844 2847 2848 2849 2851 2853 2854 2855 2856 2856 2856 2857 2857 2857 2858 2858 2858 2857 2858 2858 2858 2858 2858 2858 2857 2857 2856 2855 2855 2855 2855 2854 2854 2855 2856 2858 2861 2864 2865 2865 2866 2867 2868 2869 2869 2869 2871 2872 2874 2875 2878 2880 2883 2885 2887 2889 2892 2894 2897 2898 2901 2903 2906 2908 2911 2914 2916 2919 2922 2924 2926 2928 2931 2933 2936
2818 2821 2823 2825 2827 2828 2829 2832 2835 2837 2839 2841 2843 2844 2845 2847 2849 2850 2852 2852 2852 2853 2853 2853 2854 2854 2854 2854 2854 2854 2854 2855 2855 2855 2855 2855 2854 2854 2854 2854 2854 2854 2854 2853 2853 2854 2855 2857 2860 2860 2860 2860 2861 2863 2864 2864 2865 2866 2868 2870 2871 2873 2875 2878 2880 2882 2884 2886 2889 2892 2895 2896 2898 2900 2903 2906 2909 2911 2914 2917 2919 2921 2924 2926 2929 2932
2815 2816 2818 2821 2824 2825 2826 2829 2832 2833 2835 2837 2839 2840 2842 2844 2846 2847 2848 2848 2848 2848 2848 2849 2850 2850 2850 2850 2850 2851 2851 2851 2851 2851 2852 2852 2852 2852 2852 2852 2853 2853 2853 2852 2853 2853 2853 2854 2855 2855 2855 2855 2856 2857 2859 2860 2860 2862 2863 2865 2866 2868 2870 2872 2874 2876 2878 2881 2883 2886 2889 2891 2893 2895 2898 2900 2903 2906 2909 2912 2915 2918 2920 2923 2925 2928
2811 2812 2814 2817 2820 2820 2822 2825 2828 2830 2831 2833 2836 2838 2839 2841 2842 2843 2843 2843 2844 2844 2844 2844 2845 2845 2846 2846 2846 2847 2847 2847 2848 2848 2848 2849 2849 2849 2850 2850 2850 2850 2850 2850 2850 2850 2850 2850 2850 2849 2849 2849 2850 2852 2854 2855 2856 2857 2858 2859 2861 2862 2864 2866 2869 2871 2872 2875 2877 2879 2882 2885 2888 2890 2892 2895 2898 2901 2903 2906 2909 2912 2915 2917 2920 2922
2807 2808 2810 2813 2815 2818 2820 2823 2825 2827 2828 2830 2833 2835 2836 2837 2837 2838 2838 2839 2839 2840 2840 2840 2840 2841 2842 2842 2842 2843 2843 2843 2844 2845 2845 2845 2846 2846 2846 2846 2846 2846 2846 2846 2846 2845 2845 2844 2844 2843 2843 2844 2845 2847 2849 2851 2852 2853 2853 2854 2856 2858 2859 2861 2864 2866 2867 2869 2871 2873 2875 2878 2881 2884 2887 2890 2893 2895 2898 2900 2903 2906 2908 2911 2913 2916